Location: El Portezuelo
(28.4984°N, 16.3589°W)
Time: 04:47:34
(UTC+00:00)

Cosmos 1697 Rocket - Pass Details

Date: 20 January 2020
Orbit: 833 x 843 km, 71.0° (Epoch: 26 February)

Event Time Altitude Azimuth Distance (km) Brightness Sun altitude
Exits shadow 06:41:20 18° 324° (NW) 1,919 4.1 -16.9°
Drops below altitude 10° 06:43:39 10° 347° (NNW) 2,442 4.8 -16.4°
Sets 06:46:41 0° 2° (N) 3,379 5.7 -15.7°
